SV3BEF-4 Korifi GR current weather conditions

sailwx.info

Wind from 084

Air temperature 5.6° C

Last reported at 2018-Jan-18 23:10 UTC.
Time now 2018-Jan-18 23:59 UTC

Location: N 37°46' E 021°26'.
View on Google Maps.

See reports from other nearby stations

  
Tides and Currents Weather Stations Pressure Air Temp Water Temp Dewpoint Dewpoint Depression Visibility Wind Speed Wind Dir Waves Ship Positions
date/time (UTC)wind fromknots sea level pressurealtimeterstation pressurevisibilityair tempwater tempwave heightnotes
2018-Jan-18 23:10 084 5.6
2018-Jan-18 23:05 084 0 6.7
2018-Jan-18 22:59 084 6.7
2018-Jan-18 22:54 084 6.7
2018-Jan-18 22:49 084 6.7
2018-Jan-18 22:44 084 6.7
2018-Jan-18 22:39 084 6.1
2018-Jan-18 22:34 084 5.6
2018-Jan-18 22:29 084 7.2
2018-Jan-18 22:24 084 7.2
2018-Jan-18 22:19 084 6.7
2018-Jan-18 22:14 084 6.7
2018-Jan-18 22:09 084 6.7
2018-Jan-18 22:04 084 7.2
2018-Jan-18 21:59 084 6.7
2018-Jan-18 21:54 084 6.7
2018-Jan-18 21:44 084 6.1
2018-Jan-18 21:39 084 7.2
2018-Jan-18 21:34 110 0 gusting 2 7.8
2018-Jan-18 21:29 208 7.8
2018-Jan-18 21:24 208 7.8
2018-Jan-18 21:19 208 7.8
2018-Jan-18 21:14 208 7.8
2018-Jan-18 21:09 208 7.8
2018-Jan-18 21:04 208 7.8
2018-Jan-18 20:59 208 7.8
2018-Jan-18 20:54 208 7.2
2018-Jan-18 20:49 208 7.8
2018-Jan-18 20:44 208 7.8
2018-Jan-18 20:39 208 8.9
2018-Jan-18 20:29 208 8.9
2018-Jan-18 20:19 208 8.3
2018-Jan-18 20:09 208 8.3
2018-Jan-18 20:03 208 8.3
2018-Jan-18 19:58 208 7.8
2018-Jan-18 19:48 208 8.3
2018-Jan-18 19:43 208 8.9
2018-Jan-18 19:38 208 9.4
2018-Jan-18 19:33 208 9.4
2018-Jan-18 19:28 208 9.4
2018-Jan-18 19:23 208 9.4
2018-Jan-18 19:18 208 9.4
2018-Jan-18 19:13 208 9.4
2018-Jan-18 19:08 208 9.4
2018-Jan-18 19:03 208 9.4
2018-Jan-18 18:58 208 9.4
2018-Jan-18 18:53 208 10.0
2018-Jan-18 18:48 208 9.4
2018-Jan-18 18:43 208 9.4
2018-Jan-18 18:38 208 10.0
2018-Jan-18 18:28 208 10.0
2018-Jan-18 18:23 208 10.6
2018-Jan-18 18:18 208 10.6
2018-Jan-18 18:13 208 10.6
2018-Jan-18 18:08 208 10.6
2018-Jan-18 18:03 208 10.6
2018-Jan-18 17:58 208 10.6
2018-Jan-18 17:53 208 10.6
2018-Jan-18 17:43 208 11.1
2018-Jan-18 17:38 208 11.1
2018-Jan-18 17:33 208 11.1
2018-Jan-18 17:28 156 3 11.1
2018-Jan-18 17:23 177 2 11.1
2018-Jan-18 17:18 203 11.1
2018-Jan-18 17:07 191 11.1
2018-Jan-18 17:02 077 10.6
2018-Jan-18 16:52 148 11.1
2018-Jan-18 16:47 148 11.1
2018-Jan-18 16:42 148 11.1
2018-Jan-18 16:37 198 11.1
2018-Jan-18 16:32 183 5 gusting 2 11.1
2018-Jan-18 16:27 224 0 11.1
2018-Jan-18 16:22 218 11.1
2018-Jan-18 16:17 218 11.1
2018-Jan-18 16:12 218 1 11.1
2018-Jan-18 16:07 193 4 11.1
2018-Jan-18 16:02 197 11.1
2018-Jan-18 15:57 197 11.1
2018-Jan-18 15:52 242 3 gusting 3 11.1
2018-Jan-18 15:42 214 0 11.1
2018-Jan-18 15:37 245 3 gusting 3 11.1
2018-Jan-18 15:32 197 1 gusting 4 11.1
2018-Jan-18 15:27 240 2 11.1
2018-Jan-18 15:22 211 2 gusting 3 11.1
2018-Jan-18 15:17 214 11.1
2018-Jan-18 15:12 197 1 11.7
2018-Jan-18 15:02 240 2 11.7
2018-Jan-18 14:52 225 4 gusting 6 11.7
2018-Jan-18 14:47 149 3 11.7
2018-Jan-18 14:42 181 4 11.7
2018-Jan-18 14:37 226 5 gusting 5 11.7
2018-Jan-18 14:32 177 0 gusting 6 12.2
2018-Jan-18 14:27 214 4 gusting 4 12.2
2018-Jan-18 14:21 167 6 gusting 6 12.2
2018-Jan-18 14:16 215 5 gusting 6 12.2
2018-Jan-18 14:11 212 3 gusting 5 12.2
2018-Jan-18 14:06 198 4 gusting 3 12.2
2018-Jan-18 14:01 225 4 gusting 5 12.2
2018-Jan-18 13:56 195 5 12.2
2018-Jan-18 13:51 240 5 12.2
2018-Jan-18 13:46 248 5 gusting 7 12.2
2018-Jan-18 13:36 215 5 gusting 3 12.8
2018-Jan-18 13:31 193 0 gusting 2 12.8
2018-Jan-18 13:26 231 4 gusting 6 12.8
2018-Jan-18 13:21 183 4 12.8
2018-Jan-18 13:11 243 2 gusting 3 12.8
2018-Jan-18 13:01 177 4 gusting 6 12.8
2018-Jan-18 12:56 215 0 gusting 6 12.8
2018-Jan-18 12:51 210 6 gusting 6 12.8
2018-Jan-18 12:46 187 0 12.8
2018-Jan-18 12:41 184 5 gusting 6 12.8
2018-Jan-18 12:36 059 2 gusting 3 12.8
2018-Jan-18 12:31 169 3 gusting 2 12.8
2018-Jan-18 12:26 153 4 gusting 2 12.8
2018-Jan-18 12:21 219 5 gusting 5 12.8
2018-Jan-18 12:11 194 5 gusting 5 12.8
2018-Jan-18 11:51 195 6 gusting 4 12.2
2018-Jan-18 11:36 187 5 gusting 2 12.8
2018-Jan-18 11:30 165 6 gusting 7 12.2
2018-Jan-18 11:25 215 5 gusting 6 12.2
2018-Jan-18 11:20 042 6 gusting 6 12.2
2018-Jan-18 11:10 221 5 gusting 8 12.2
2018-Jan-18 11:05 238 6 gusting 8 12.2
2018-Jan-18 10:55 205 6 gusting 2 12.2
2018-Jan-18 10:50 239 6 gusting 6 12.2
2018-Jan-18 10:45 236 5 gusting 5 12.8
2018-Jan-18 10:40 239 4 gusting 4 12.8
2018-Jan-18 10:35 235 4 gusting 4 12.8
2018-Jan-18 10:30 201 2 gusting 6 12.2
2018-Jan-18 10:25 203 5 gusting 6 12.2
2018-Jan-18 10:20 245 6 12.2
2018-Jan-18 10:15 173 2 gusting 4 12.2
2018-Jan-18 10:05 200 4 gusting 4 12.2
2018-Jan-18 10:00 240 5 gusting 6 12.2
2018-Jan-18 09:55 145 4 gusting 4 12.2
2018-Jan-18 09:50 221 3 gusting 6 12.2
2018-Jan-18 09:45 214 6 gusting 4 12.2
2018-Jan-18 09:35 246 7 gusting 7 11.7
2018-Jan-18 09:30 222 6 gusting 6 11.7
2018-Jan-18 09:20 184 8 gusting 6 11.7
2018-Jan-18 09:10 208 6 gusting 6 11.7
2018-Jan-18 09:05 215 6 gusting 4 11.7
2018-Jan-18 09:00 228 4 gusting 5 11.7
2018-Jan-18 08:55 194 6 gusting 9 11.1
2018-Jan-18 08:50 181 6 gusting 4 11.1
2018-Jan-18 08:45 136 6 gusting 5 11.1
2018-Jan-18 08:39 239 3 gusting 6 11.1
2018-Jan-18 08:34 184 6 11.1
2018-Jan-18 08:29 266 5 gusting 6 11.1
2018-Jan-18 08:24 195 4 gusting 6 10.6
2018-Jan-18 08:19 217 1 10.6
2018-Jan-18 08:14 208 0 gusting 4 9.4
2018-Jan-18 08:09 226 10.0
2018-Jan-18 08:04 240 1 gusting 6 10.0
2018-Jan-18 07:59 259 4 gusting 5 10.0
2018-Jan-18 07:54 127 5 gusting 3 10.6
2018-Jan-18 07:49 228 6 gusting 5 10.6
2018-Jan-18 07:44 225 5 gusting 4 10.6
2018-Jan-18 07:39 229 2 gusting 5 10.0
2018-Jan-18 07:34 228 2 10.0
2018-Jan-18 07:29 210 2 gusting 4 10.0
2018-Jan-18 07:24 225 2 10.0
2018-Jan-18 07:19 197 3 gusting 2 10.0
2018-Jan-18 07:09 152 10.0
2018-Jan-18 07:04 146 3 gusting 4 10.0
2018-Jan-18 06:59 229 5 gusting 5 10.0
2018-Jan-18 06:54 233 5 gusting 4 9.4
2018-Jan-18 06:49 239 6 gusting 5 9.4
2018-Jan-18 06:44 222 9.4
2018-Jan-18 06:39 132 4 gusting 4 9.4
2018-Jan-18 06:34 219 5 gusting 6 8.9
2018-Jan-18 06:29 203 1 8.9
2018-Jan-18 06:24 226 1 gusting 4 8.9
2018-Jan-18 06:19 232 8.3
2018-Jan-18 06:14 174 0 gusting 2 8.3
2018-Jan-18 06:09 218 3 gusting 3 8.3
2018-Jan-18 06:04 158 1 8.3
2018-Jan-18 05:59 201 2 gusting 4 8.3
2018-Jan-18 05:54 215 6 gusting 4 8.3
2018-Jan-18 05:49 214 6 gusting 6 9.4
2018-Jan-18 05:43 233 1 gusting 4 9.4
2018-Jan-18 05:38 191 3 9.4
2018-Jan-18 05:33 200 4 9.4
2018-Jan-18 05:18 086 1 gusting 4 9.4
2018-Jan-18 05:13 215 1 9.4
2018-Jan-18 05:08 186 4 gusting 6 8.9
2018-Jan-18 05:03 193 5 gusting 4 8.9
2018-Jan-18 04:43 211 4 gusting 5 11.1
2018-Jan-18 04:38 219 5 gusting 2 11.1
2018-Jan-18 04:28 194 3 11.1
2018-Jan-18 04:23 217 4 gusting 4 11.1
2018-Jan-18 04:13 215 3 gusting 6 11.1
2018-Jan-18 03:58 201 6 gusting 8 11.7
2018-Jan-18 03:43 201 11.7
2018-Jan-18 03:38 212 4 gusting 3 11.7
2018-Jan-18 03:13 246 5 gusting 6 12.2
2018-Jan-18 02:42 184 3 gusting 1 12.2
2018-Jan-18 02:37 233 2 gusting 4 12.2
2018-Jan-18 02:07 218 12.2
2018-Jan-18 01:47 224 2 12.8
2018-Jan-18 01:37 267 2 gusting 2 12.8
2018-Jan-18 01:32 193 12.8
2018-Jan-18 01:22 225 4 gusting 4 12.8
2018-Jan-18 01:17 191 3 gusting 3 12.8
2018-Jan-18 01:12 203 2 gusting 4 12.8
2018-Jan-18 01:02 229 4 gusting 5 12.8
2018-Jan-18 00:57 211 3 12.8
2018-Jan-18 00:42 217 3 gusting 5 12.8
2018-Jan-18 00:27 238 2 gusting 4 12.2
2018-Jan-18 00:22 193 12.2
2018-Jan-18 00:12 193 12.2
2018-Jan-17 23:51 179 1 12.8
2018-Jan-17 23:46 153 0 gusting 4 12.8
2018-Jan-17 23:36 208 3 gusting 6 12.8
2018-Jan-17 23:31 212 3 gusting 4 13.3
2018-Jan-17 23:21 238 1 gusting 2 13.3
2018-Jan-17 23:16 212 2 gusting 2 13.3
2018-Jan-17 23:11 165 1 gusting 2 13.3
2018-Jan-17 23:06 246 13.3
2018-Jan-17 23:01 226 13.3
2018-Jan-17 22:51 221 4 gusting 4 13.3
2018-Jan-17 22:46 215 6 gusting 2 13.3
2018-Jan-17 22:36 174 5 gusting 4 13.9
2018-Jan-17 22:31 243 4 gusting 6 14.4
2018-Jan-17 22:26 188 6 gusting 6 14.4
2018-Jan-17 22:21 221 0 gusting 6 14.4